QPF
0.09 0.10 0.09 0.06 0.04 0.03 0.03 0.04 0.05 0.04 0.04 0.04 0.05 0.05 0.04 0.03 0.02 0.02 0.03 0.02 0.02 0.02 0.02 0.03 0.05 0.05 0.06 0.07 0.09 0.06 0.04 0.03 0.04 0.05 0.05 0.05 0.05 0.05 0.06 0.06 0.04 0.04 0.13
0.06 0.06 0.06 0.04 0.03 0.03 0.04 0.04 0.04 0.05 0.09 0.09 0.06 0.05 0.05 0.03 0.03 0.03 0.03 0.02 0.02 0.02 0.02 0.03 0.04 0.06 0.08 0.08 0.07 0.05 0.04 0.05 0.06 0.06 0.07 0.06 0.05 0.06 0.06 0.05 0.03 0.02 0.06
0.05 0.04 0.05 0.04 0.02 0.02 0.03 0.03 0.02 0.03 0.08 0.08 0.05 0.04 0.04 0.04 0.03 0.03 0.03 0.03 0.02 0.02 0.02 0.03 0.05 0.06 0.07 0.06 0.05 0.04 0.04 0.04 0.06 0.07 0.07 0.04 0.04 0.06 0.06 0.06 0.04 0.03 0.03
0.03 0.03 0.06 0.05 0.03 0.03 0.03 0.02 0.02 0.03 0.02 0.03 0.03 0.03 0.03 0.03 0.02 0.03 0.03 0.03 0.03 0.03 0.03 0.04 0.06 0.04 0.04 0.05 0.05 0.04 0.04 0.05 0.07 0.07 0.04 0.02 0.02 0.07 0.06 0.05 0.04 0.03 0.03
0.04 0.05 0.07 0.06 0.04 0.03 0.03 0.03 0.03 0.03 0.02 0.02 0.02 0.02 0.02 0.01 0.02 0.03 0.03 0.03 0.03 0.03 0.05 0.07 0.05 0.03 0.02 0.03 0.03 0.05 0.07 0.07 0.07 0.04 0.03 0.02 0.02 0.04 0.06 0.08 0.08 0.04 0.03
0.03 0.06 0.06 0.06 0.04 0.04 0.05 0.04 0.05 0.03 0.02 0.02 0.02 0.01 0.02 0.02 0.02 0.03 0.03 0.03 0.03 0.05 0.05 0.05 0.03 0.02 0.02 0.03 0.04 0.06 0.06 0.06 0.06 0.03 0.03 0.02 0.02 0.03 0.05 0.07 0.05 0.04 0.03
0.02 0.05 0.05 0.05 0.04 0.04 0.06 0.07 0.06 0.03 0.03 0.02 0.02 0.02 0.02 0.02 0.02 0.02 0.02 0.04 0.05 0.05 0.05 0.03 0.02 0.02 0.03 0.03 0.03 0.04 0.04 0.06 0.07 0.04 0.02 0.01 0.02 0.02 0.03 0.05 0.06 0.05 0.03
0.01 0.03 0.03 0.04 0.04 0.05 0.06 0.06 0.06 0.04 0.03 0.02 0.03 0.03 0.03 0.02 0.02 0.02 0.03 0.04 0.04 0.06 0.04 0.03 0.02 0.03 0.05 0.05 0.04 0.03 0.03 0.04 0.04 0.03 0.02 0.02 0.02 0.01 0.01 0.03 0.04 0.04 0.04
0.01 0.01 0.01 0.02 0.02 0.04 0.03 0.03 0.04 0.05 0.04 0.03 0.04 0.05 0.04 0.02 0.02 0.02 0.03 0.04 0.05 0.05 0.04 0.03 0.03 0.05 0.07 0.06 0.04 0.03 0.04 0.05 0.04 0.03 0.03 0.03 0.01 0.01 0.01 0.03 0.04 0.04 0.04
0.01 0.01 0.01 0.01 0.01 0.02 0.03 0.04 0.05 0.05 0.05 0.04 0.03 0.03 0.03 0.03 0.02 0.02 0.03 0.03 0.03 0.03 0.03 0.03 0.04 0.08 0.10 0.06 0.03 0.03 0.03 0.04 0.04 0.05 0.04 0.03 0.01 0.01 0.02 0.03 0.03 0.03 0.04
0.02 0.01 0.01 0.01 0.01 0.01 0.03 0.05 0.08 0.08 0.06 0.04 0.04 0.03 0.02 0.01 0.01 0.01 0.01 0.01 0.02 0.02 0.02 0.02 0.05 0.08 0.10 0.05 0.04 0.04 0.04 0.04 0.05 0.06 0.04 0.02 0.02 0.01 0.02 0.03 0.03 0.03 0.04
0.04 0.03 0.01 0.01 0.01 0.01 0.02 0.03 0.06 0.07 0.05 0.04 0.04 0.02 0.01 0.01 0.01 0.01 0.01 0.01 0.01 0.01 0.02 0.03 0.04 0.08 0.10 0.08 0.06 0.06 0.05 0.06 0.06 0.05 0.03 0.02 0.02 0.02 0.03 0.02 0.02 0.03 0.04
0.08 0.06 0.03 0.02 0.02 0.01 0.01 0.01 0.03 0.04 0.03 0.03 0.03 0.02 0.02 0.01 0.01 0.01 0.02 0.02 0.01 0.02 0.02 0.02 0.03 0.05 0.09 0.10 0.10 0.09 0.07 0.06 0.06 0.03 0.03 0.03 0.03 0.03 0.03 0.03 0.02 0.03 0.04
0.08 0.06 0.05 0.04 0.02 0.01 0.01 0.01 0.02 0.03 0.02 0.03 0.03 0.03 0.02 0.02 0.02 0.01 0.01 0.01 0.02 0.02 0.03 0.03 0.04 0.04 0.07 0.10 0.10 0.10 0.08 0.06 0.04 0.04 0.04 0.03 0.03 0.04 0.04 0.03 0.04 0.04 0.05
0.05 0.05 0.04 0.03 0.02 0.02 0.02 0.01 0.02 0.02 0.03 0.04 0.05 0.04 0.02 0.01 0.02 0.02 0.01 0.01 0.02 0.02 0.03 0.04 0.04 0.04 0.05 0.07 0.08 0.08 0.08 0.07 0.05 0.06 0.06 0.04 0.05 0.06 0.05 0.04 0.04 0.04 0.04
0.02 0.02 0.01 0.01 0.01 0.02 0.02 0.02 0.02 0.03 0.03 0.04 0.04 0.04 0.03 0.02 0.02 0.02 0.03 0.02 0.02 0.02 0.03 0.05 0.04 0.04 0.04 0.06 0.08 0.08 0.08 0.07 0.05 0.03 0.06 0.06 0.07 0.08 0.06 0.05 0.04 0.03 0.04
0.01 0.01 0.01 0.01 0.01 0.02 0.02 0.03 0.04 0.04 0.04 0.04 0.05 0.04 0.04 0.03 0.03 0.02 0.02 0.03 0.04 0.03 0.04 0.07 0.03 0.05 0.05 0.06 0.08 0.07 0.05 0.06 0.04 0.04 0.05 0.05 0.05 0.06 0.08 0.09 0.07 0.04 0.04
0.01 0.01 0.01 0.01 0.01 0.01 0.02 0.03 0.04 0.06 0.05 0.06 0.05 0.04 0.03 0.04 0.04 0.03 0.02 0.02 0.03 0.03 0.03 0.03 0.03 0.04 0.08 0.06 0.05 0.03 0.03 0.04 0.04 0.03 0.03 0.03 0.04 0.04 0.05 0.07 0.09 0.09 0.06
0.02 0.02 0.01 0.01 0.01 0.02 0.02 0.06 0.06 0.06 0.06 0.07 0.06 0.04 0.02 0.02 0.02 0.03 0.03 0.01 0.03 0.02 0.03 0.02 0.02 0.02 0.03 0.04 0.03 0.02 0.02 0.03 0.03 0.03 0.03 0.03 0.04 0.04 0.04 0.04 0.05 0.07 0.06
0.01 0.01 0.02 0.01 0.02 0.03 0.05 0.09 0.09 0.07 0.07 0.07 0.04 0.02 0.02 0.01 0.02 0.03 0.03 0.03 0.03 0.02 0.03 0.03 0.03 0.03 0.02 0.02 0.03 0.04 0.04 0.03 0.02 0.03 0.03 0.03 0.04 0.04 0.04 0.04 0.03 0.04 0.04
0.00 0.01 0.01 0.01 0.02 0.04 0.07 0.09 0.09 0.09 0.09 0.07 0.04 0.04 0.03 0.02 0.02 0.03 0.03 0.02 0.02 0.02 0.03 0.03 0.03 0.03 0.02 0.02 0.03 0.04 0.04 0.03 0.03 0.04 0.05 0.04 0.03 0.03 0.03 0.04 0.04 0.06 0.07
0.01 0.02 0.02 0.02 0.03 0.05 0.07 0.08 0.11 0.10 0.06 0.05 0.05 0.07 0.05 0.04 0.04 0.03 0.03 0.02 0.02 0.03 0.03 0.02 0.03 0.03 0.03 0.02 0.03 0.03 0.03 0.02 0.03 0.04 0.06 0.05 0.04 0.03 0.03 0.04 0.03 0.05 0.07
0.01 0.01 0.01 0.02 0.03 0.05 0.05 0.07 0.09 0.06 0.05 0.05 0.05 0.05 0.04 0.06 0.07 0.06 0.05 0.03 0.02 0.03 0.04 0.03 0.03 0.03 0.03 0.03 0.04 0.04 0.03 0.02 0.02 0.04 0.07 0.07 0.04 0.04 0.04 0.04 0.03 0.03 0.04
0.01 0.01 0.01 0.02 0.03 0.04 0.05 0.06 0.05 0.03 0.03 0.03 0.02 0.02 0.03 0.06 0.06 0.06 0.05 0.04 0.02 0.01 0.02 0.03 0.04 0.04 0.03 0.02 0.04 0.04 0.04 0.04 0.03 0.02 0.06 0.08 0.04 0.04 0.05 0.04 0.04 0.03 0.03
0.01 0.01 0.01 0.01 0.03 0.04 0.05 0.04 0.04 0.03 0.03 0.02 0.01 0.01 0.02 0.02 0.01 0.02 0.02 0.03 0.03 0.02 0.01 0.02 0.04 0.05 0.04 0.03 0.04 0.05 0.04 0.05 0.04 0.04 0.05 0.02 0.02 0.02 0.04 0.04 0.03 0.03 0.03
0.02 0.01 0.01 0.02 0.06 0.09 0.07 0.04 0.05 0.04 0.03 0.01 0.01 0.01 0.01 0.01 0.01 0.02 0.02 0.02 0.02 0.02 0.01 0.02 0.03 0.04 0.04 0.03 0.04 0.05 0.04 0.03 0.03 0.03 0.03 0.01 0.01 0.02 0.02 0.03 0.04 0.03 0.03
MSLP
1008.47 1007.72 1007.13 1006.75 1006.55 1006.51 1006.54 1006.57 1006.55 1006.44 1006.23 1005.93 1005.60 1005.26 1004.94 1004.65 1004.38 1004.10 1003.80 1003.45 1003.07 1002.67 1002.28 1001.94 1001.69 1001.55 1001.52 1001.57 1001.69 1001.84 1002.01 1002.18 1002.37 1002.59 1002.87 1003.22 1003.65 1004.15 1004.69 1005.24 1005.77 1006.25 1006.67
1008.13 1007.43 1006.88 1006.52 1006.34 1006.29 1006.31 1006.33 1006.28 1006.15 1005.91 1005.59 1005.22 1004.83 1004.45 1004.09 1003.74 1003.41 1003.06 1002.69 1002.30 1001.90 1001.52 1001.19 1000.93 1000.77 1000.70 1000.73 1000.83 1000.98 1001.17 1001.39 1001.63 1001.90 1002.22 1002.59 1003.02 1003.51 1004.05 1004.61 1005.17 1005.70 1006.20
1007.61 1006.97 1006.49 1006.18 1006.04 1006.01 1006.04 1006.05 1006.00 1005.84 1005.57 1005.20 1004.77 1004.30 1003.84 1003.39 1002.97 1002.58 1002.20 1001.81 1001.43 1001.04 1000.65 1000.30 999.99 999.77 999.64 999.62 999.69 999.87 1000.12 1000.42 1000.77 1001.15 1001.55 1001.98 1002.43 1002.91 1003.42 1003.96 1004.53 1005.11 1005.69
1006.96 1006.41 1006.01 1005.77 1005.68 1005.70 1005.75 1005.77 1005.71 1005.53 1005.22 1004.79 1004.28 1003.72 1003.16 1002.62 1002.13 1001.68 1001.26 1000.86 1000.46 1000.05 999.61 999.17 998.76 998.41 998.16 998.05 998.09 998.30 998.65 999.12 999.66 1000.23 1000.79 1001.33 1001.83 1002.32 1002.82 1003.34 1003.90 1004.51 1005.15
1006.29 1005.83 1005.52 1005.36 1005.34 1005.39 1005.47 1005.49 1005.42 1005.22 1004.86 1004.37 1003.77 1003.12 1002.46 1001.84 1001.27 1000.77 1000.32 999.88 999.42 998.92 998.36 997.74 997.12 996.55 996.10 995.86 995.85 996.12 996.63 997.33 998.16 999.02 999.85 1000.58 1001.21 1001.76 1002.25 1002.75 1003.30 1003.92 1004.60
1005.72 1005.34 1005.11 1005.03 1005.05 1005.14 1005.22 1005.25 1005.15 1004.91 1004.50 1003.95 1003.28 1002.55 1001.82 1001.12 1000.49 999.94 999.43 998.92 998.35 997.68 996.89 996.00 995.06 994.17 993.45 993.01 992.94 993.27 993.98 995.00 996.21 997.48 998.67 999.70 1000.54 1001.20 1001.73 1002.23 1002.76 1003.37 1004.08
1005.35 1005.04 1004.87 1004.83 1004.88 1004.96 1005.03 1005.03 1004.90 1004.62 1004.17 1003.56 1002.84 1002.06 1001.27 1000.53 999.86 999.25 998.66 998.04 997.30 996.39 995.28 994.01 992.66 991.36 990.30 989.63 989.47 989.87 990.82 992.21 993.87 995.62 997.27 998.69 999.81 1000.65 1001.28 1001.79 1002.31 1002.91 1003.62
1005.25 1004.98 1004.84 1004.80 1004.83 1004.88 1004.90 1004.84 1004.67 1004.34 1003.85 1003.22 1002.47 1001.67 1000.87 1000.11 999.41 998.75 998.07 997.30 996.34 995.13 993.65 991.94 990.13 988.39 986.95 986.02 985.76 986.24 987.43 989.20 991.35 993.61 995.76 997.61 999.07 1000.14 1000.89 1001.46 1001.98 1002.56 1003.26
1005.42 1005.17 1005.02 1004.95 1004.91 1004.89 1004.82 1004.69 1004.45 1004.08 1003.57 1002.93 1002.20 1001.42 1000.63 999.88 999.16 998.45 997.69 996.76 995.57 994.05 992.19 990.05 987.79 985.62 983.83 982.65 982.29 982.84 984.25 986.37 988.95 991.71 994.33 996.59 998.39 999.69 1000.59 1001.23 1001.76 1002.32 1002.99
1005.79 1005.54 1005.36 1005.21 1005.09 1004.95 1004.78 1004.56 1004.25 1003.85 1003.34 1002.72 1002.02 1001.28 1000.54 999.81 999.10 998.36 997.51 996.45 995.06 993.29 991.11 988.62 985.99 983.48 981.41 980.04 979.60 980.19 981.76 984.14 987.06 990.19 993.17 995.77 997.84 999.35 1000.38 1001.09 1001.64 1002.19 1002.83
1006.27 1006.01 1005.78 1005.54 1005.30 1005.05 1004.77 1004.45 1004.09 1003.66 1003.16 1002.58 1001.93 1001.25 1000.57 999.88 999.19 998.44 997.55 996.40 994.89 992.95 990.58 987.88 985.04 982.34 980.10 978.62 978.13 978.73 980.38 982.90 985.99 989.31 992.49 995.28 997.50 999.14 1000.25 1001.01 1001.58 1002.13 1002.76
1006.76 1006.48 1006.19 1005.87 1005.53 1005.16 1004.78 1004.38 1003.97 1003.53 1003.05 1002.51 1001.93 1001.31 1000.68 1000.04 999.38 998.65 997.75 996.58 995.05 993.09 990.69 987.97 985.12 982.40 980.15 978.67 978.16 978.75 980.37 982.87 985.94 989.23 992.40 995.18 997.41 999.06 1000.20 1000.97 1001.56 1002.12 1002.74
1007.16 1006.87 1006.54 1006.15 1005.71 1005.26 1004.80 1004.35 1003.92 1003.48 1003.02 1002.53 1002.00 1001.43 1000.85 1000.25 999.63 998.93 998.08 996.97 995.53 993.68 991.44 988.90 986.23 983.69 981.59 980.20 979.72 980.26 981.77 984.09 986.93 989.99 992.93 995.50 997.58 999.12 1000.20 1000.95 1001.55 1002.12 1002.76
1007.43 1007.14 1006.78 1006.35 1005.85 1005.35 1004.85 1004.38 1003.93 1003.51 1003.08 1002.62 1002.13 1001.60 1001.05 1000.48 999.89 999.24 998.47 997.50 996.24 994.65 992.71 990.51 988.20 986.00 984.18 982.98 982.58 983.05 984.37 986.37 988.83 991.46 993.98 996.19 997.96 999.29 1000.25 1000.95 1001.54 1002.14 1002.81
1007.57 1007.29 1006.91 1006.46 1005.95 1005.43 1004.92 1004.46 1004.03 1003.63 1003.22 1002.79 1002.31 1001.80 1001.25 1000.70 1000.13 999.54 998.88 998.08 997.08 995.81 994.29 992.55 990.72 988.97 987.53 986.59 986.29 986.69 987.76 989.38 991.35 993.43 995.41 997.14 998.53 999.57 1000.35 1000.98 1001.56 1002.19 1002.90
1007.60 1007.32 1006.95 1006.50 1006.01 1005.51 1005.03 1004.61 1004.21 1003.84 1003.45 1003.02 1002.54 1002.01 1001.46 1000.89 1000.34 999.81 999.26 998.65 997.92 997.02 995.94 994.71 993.40 992.16 991.13 990.48 990.30 990.63 991.46 992.67 994.12 995.62 997.04 998.25 999.21 999.96 1000.55 1001.09 1001.65 1002.31 1003.05
1007.58 1007.30 1006.93 1006.50 1006.04 1005.59 1005.18 1004.80 1004.46 1004.12 1003.75 1003.32 1002.82 1002.26 1001.67 1001.09 1000.54 1000.05 999.60 999.16 998.68 998.12 997.45 996.68 995.87 995.10 994.48 994.11 994.06 994.35 994.96 995.81 996.78 997.77 998.65 999.40 999.98 1000.45 1000.87 1001.33 1001.87 1002.54 1003.31
1007.55 1007.25 1006.89 1006.48 1006.07 1005.69 1005.35 1005.04 1004.75 1004.45 1004.09 1003.65 1003.13 1002.53 1001.92 1001.31 1000.76 1000.30 999.92 999.61 999.32 999.02 998.69 998.30 997.89 997.51 997.23 997.11 997.18 997.46 997.91 998.49 999.09 999.67 1000.15 1000.52 1000.81 1001.06 1001.35 1001.74 1002.25 1002.91 1003.67
1007.53 1007.21 1006.84 1006.46 1006.11 1005.80 1005.54 1005.31 1005.08 1004.81 1004.47 1004.02 1003.48 1002.86 1002.22 1001.60 1001.05 1000.60 1000.27 1000.04 999.87 999.74 999.62 999.48 999.35 999.25 999.22 999.28 999.47 999.76 1000.13 1000.54 1000.92 1001.23 1001.45 1001.58 1001.69 1001.80 1002.00 1002.33 1002.82 1003.44 1004.16
1007.55 1007.19 1006.82 1006.46 1006.16 1005.92 1005.74 1005.59 1005.42 1005.20 1004.87 1004.43 1003.88 1003.26 1002.60 1001.98 1001.44 1001.01 1000.70 1000.50 1000.39 1000.33 1000.30 1000.29 1000.30 1000.35 1000.46 1000.65 1000.92 1001.25 1001.61 1001.95 1002.24 1002.43 1002.54 1002.57 1002.59 1002.65 1002.81 1003.09 1003.53 1004.09 1004.72
1007.60 1007.21 1006.82 1006.49 1006.23 1006.07 1005.97 1005.89 1005.78 1005.60 1005.31 1004.88 1004.34 1003.73 1003.09 1002.49 1001.96 1001.55 1001.25 1001.06 1000.95 1000.89 1000.86 1000.86 1000.89 1000.98 1001.14 1001.39 1001.71 1002.09 1002.48 1002.84 1003.13 1003.33 1003.44 1003.48 1003.50 1003.56 1003.69 1003.94 1004.31 1004.78 1005.30
1007.66 1007.24 1006.85 1006.54 1006.33 1006.23 1006.21 1006.20 1006.16 1006.03 1005.76 1005.37 1004.85 1004.27 1003.67 1003.11 1002.62 1002.24 1001.96 1001.75 1001.61 1001.49 1001.40 1001.33 1001.31 1001.36 1001.49 1001.74 1002.08 1002.49 1002.94 1003.37 1003.73 1004.01 1004.18 1004.29 1004.36 1004.44 1004.57 1004.78 1005.08 1005.44 1005.83
1007.73 1007.30 1006.91 1006.62 1006.47 1006.43 1006.47 1006.53 1006.55 1006.46 1006.24 1005.88 1005.41 1004.87 1004.32 1003.81 1003.39 1003.04 1002.78 1002.57 1002.39 1002.21 1002.03 1001.86 1001.73 1001.69 1001.75 1001.95 1002.28 1002.71 1003.20 1003.69 1004.15 1004.51 1004.79 1004.97 1005.10 1005.21 1005.34 1005.50 1005.71 1005.96 1006.23
1007.80 1007.37 1006.99 1006.74 1006.62 1006.64 1006.74 1006.86 1006.94 1006.90 1006.73 1006.41 1005.98 1005.49 1005.00 1004.56 1004.19 1003.90 1003.67 1003.47 1003.26 1003.02 1002.77 1002.50 1002.27 1002.12 1002.10 1002.23 1002.52 1002.93 1003.43 1003.97 1004.47 1004.91 1005.25 1005.49 1005.66 1005.78 1005.89 1006.00 1006.13 1006.29 1006.45
1007.85 1007.44 1007.09 1006.86 1006.79 1006.85 1007.01 1007.19 1007.32 1007.33 1007.20 1006.92 1006.54 1006.10 1005.67 1005.28 1004.97 1004.73 1004.54 1004.36 1004.15 1003.89 1003.58 1003.25 1002.94 1002.70 1002.60 1002.66 1002.88 1003.25 1003.73 1004.25 1004.76 1005.21 1005.57 1005.82 1006.00 1006.11 1006.18 1006.24 1006.31 1006.39 1006.47
1007.88 1007.50 1007.17 1006.98 1006.94 1007.05 1007.26 1007.49 1007.66 1007.72 1007.63 1007.39 1007.05 1006.66 1006.27 1005.93 1005.67 1005.48 1005.32 1005.17 1004.98 1004.72 1004.40 1004.05 1003.70 1003.42 1003.25 1003.25 1003.40 1003.70 1004.11 1004.57 1005.03 1005.43 1005.75 1005.98 1006.11 1006.19 1006.22 1006.24 1006.26 1006.30 1006.35
Thickness
5789 5793 5794 5794 5794 5794 5794 5793 5792 5791 5791 5790 5789 5788 5787 5785 5784 5783 5782 5781 5780 5778 5777 5776 5775 5774 5772 5771 5770 5768 5767 5766 5765 5764 5763 5762 5761 5759 5759 5758 5757 5757 5757
5794 5794 5794 5795 5795 5794 5793 5793 5792 5792 5790 5789 5789 5787 5786 5785 5783 5782 5781 5780 5779 5778 5777 5775 5774 5773 5771 5770 5768 5767 5766 5765 5764 5763 5762 5761 5760 5759 5758 5757 5756 5756 5755
5795 5795 5795 5795 5795 5794 5794 5793 5793 5792 5790 5789 5788 5787 5785 5784 5783 5782 5781 5780 5779 5777 5776 5775 5774 5772 5770 5769 5767 5766 5765 5764 5763 5762 5761 5760 5759 5758 5758 5756 5755 5754 5754
5796 5796 5796 5797 5796 5795 5794 5793 5792 5792 5790 5789 5788 5786 5785 5784 5783 5782 5781 5780 5778 5777 5775 5774 5773 5772 5770 5768 5767 5766 5765 5763 5762 5761 5760 5759 5759 5758 5757 5756 5755 5753 5752
5796 5796 5796 5797 5797 5795 5794 5793 5792 5791 5790 5789 5787 5786 5785 5784 5783 5781 5780 5779 5778 5777 5775 5774 5773 5771 5770 5769 5767 5766 5765 5764 5762 5761 5760 5759 5758 5758 5757 5755 5754 5753 5752
5796 5796 5796 5796 5795 5795 5794 5793 5792 5791 5790 5789 5787 5786 5785 5784 5783 5782 5781 5779 5778 5776 5775 5774 5773 5772 5771 5769 5768 5767 5766 5764 5763 5762 5760 5759 5758 5757 5756 5755 5754 5752 5751
5796 5796 5796 5796 5795 5794 5793 5792 5791 5791 5790 5788 5787 5786 5785 5784 5783 5782 5781 5779 5778 5777 5775 5775 5773 5772 5771 5770 5769 5767 5766 5765 5764 5762 5760 5759 5758 5757 5756 5755 5753 5752 5750
5797 5797 5796 5796 5795 5794 5793 5792 5791 5791 5789 5788 5787 5786 5785 5784 5783 5783 5782 5780 5779 5777 5776 5775 5774 5772 5771 5770 5769 5768 5767 5766 5764 5762 5760 5759 5758 5757 5756 5755 5753 5751 5750
5798 5797 5796 5795 5794 5794 5793 5792 5791 5790 5789 5788 5787 5786 5785 5784 5783 5783 5782 5781 5779 5778 5776 5775 5774 5773 5772 5772 5771 5769 5768 5767 5765 5763 5761 5759 5758 5757 5756 5754 5752 5751 5750
5796 5796 5795 5795 5794 5793 5792 5791 5791 5789 5789 5788 5787 5786 5785 5784 5784 5783 5782 5781 5780 5778 5777 5776 5775 5774 5774 5773 5772 5771 5769 5767 5765 5763 5762 5760 5759 5757 5756 5754 5753 5751 5750
5793 5794 5795 5794 5794 5793 5792 5791 5790 5789 5788 5787 5787 5786 5785 5784 5784 5783 5782 5782 5780 5779 5778 5777 5776 5776 5775 5775 5774 5772 5770 5768 5766 5764 5763 5762 5760 5758 5756 5755 5753 5751 5750
5791 5793 5795 5794 5794 5793 5793 5791 5790 5788 5788 5787 5787 5786 5785 5784 5783 5783 5783 5782 5781 5780 5779 5778 5778 5777 5776 5775 5775 5773 5771 5769 5768 5766 5765 5763 5761 5759 5757 5755 5754 5752 5750
5795 5795 5795 5795 5795 5794 5793 5792 5790 5788 5788 5787 5787 5786 5785 5784 5783 5783 5783 5782 5781 5780 5779 5779 5778 5777 5777 5776 5775 5773 5772 5770 5769 5767 5766 5764 5762 5760 5758 5757 5755 5753 5751
5796 5796 5797 5797 5796 5795 5794 5793 5791 5790 5789 5788 5788 5787 5786 5784 5783 5783 5782 5782 5781 5781 5779 5779 5778 5778 5777 5777 5776 5775 5773 5771 5770 5769 5767 5765 5763 5761 5760 5758 5756 5754 5752
5798 5797 5797 5798 5797 5796 5795 5793 5792 5791 5790 5789 5788 5787 5787 5785 5784 5783 5783 5782 5782 5781 5780 5779 5778 5778 5777 5777 5777 5776 5775 5773 5771 5769 5767 5766 5764 5762 5760 5759 5757 5755 5754
5800 5799 5800 5799 5798 5797 5795 5794 5793 5792 5791 5790 5789 5789 5788 5787 5786 5785 5784 5783 5783 5782 5781 5780 5779 5779 5778 5777 5777 5776 5775 5773 5771 5769 5767 5765 5764 5762 5761 5759 5758 5756 5754
5802 5802 5801 5800 5799 5797 5796 5795 5794 5792 5791 5791 5790 5790 5789 5789 5788 5786 5784 5783 5783 5783 5782 5781 5780 5779 5778 5777 5776 5775 5775 5773 5771 5769 5767 5766 5764 5762 5761 5760 5758 5756 5755
5805 5803 5802 5803 5800 5798 5796 5795 5794 5793 5792 5792 5791 5791 5790 5789 5788 5787 5785 5784 5784 5783 5782 5780 5779 5777 5776 5775 5774 5774 5774 5772 5771 5769 5767 5766 5764 5762 5761 5760 5758 5756 5755
5808 5805 5803 5802 5800 5798 5797 5796 5795 5795 5794 5793 5791 5791 5791 5790 5789 5787 5786 5785 5784 5782 5781 5780 5777 5776 5773 5773 5773 5773 5773 5772 5771 5770 5768 5766 5764 5762 5761 5759 5758 5756 5755
5811 5808 5805 5802 5800 5799 5797 5795 5794 5794 5794 5793 5792 5791 5791 5790 5789 5787 5786 5784 5783 5781 5779 5778 5776 5775 5774 5772 5773 5771 5771 5771 5770 5769 5767 5766 5764 5762 5760 5759 5757 5756 5754
5810 5807 5805 5801 5800 5799 5796 5793 5791 5789 5790 5791 5792 5791 5790 5789 5788 5786 5785 5783 5782 5779 5778 5777 5775 5773 5771 5771 5767 5764 5766 5768 5767 5767 5766 5764 5762 5761 5760 5758 5756 5755 5753
5810 5808 5805 5802 5801 5800 5799 5796 5793 5791 5790 5790 5790 5790 5789 5788 5787 5786 5784 5782 5781 5778 5776 5775 5773 5770 5769 5769 5763 5756 5752 5755 5761 5765 5764 5763 5761 5760 5758 5757 5755 5754 5753
5810 5808 5807 5805 5803 5801 5800 5796 5793 5790 5788 5786 5786 5787 5788 5787 5786 5785 5783 5782 5780 5777 5775 5774 5772 5769 5765 5765 5765 5758 5748 5744 5749 5756 5759 5760 5759 5757 5756 5755 5754 5753 5752
5813 5812 5809 5806 5804 5801 5799 5795 5790 5784 5781 5782 5784 5784 5785 5785 5785 5784 5783 5781 5778 5776 5774 5772 5772 5769 5766 5761 5762 5762 5758 5754 5746 5744 5751 5754 5756 5754 5753 5754 5752 5751 5750
5815 5813 5810 5807 5803 5801 5798 5794 5790 5786 5784 5784 5783 5782 5782 5783 5783 5782 5781 5779 5777 5775 5773 5771 5769 5768 5765 5761 5759 5757 5756 5753 5751 5743 5739 5744 5748 5750 5751 5750 5750 5749 5748
5815 5813 5810 5806 5802 5800 5797 5794 5790 5786 5784 5782 5780 5779 5779 5779 5780 5780 5779 5777 5775 5773 5771 5769 5767 5765 5763 5761 5759 5756 5753 5749 5746 5743 5739 5738 5739 5743 5746 5747 5747 5746 5745